Вернуться в каталог

LVM3 CUS R/B

АктивенVLEO
NORAD 67233·ROCKET BODY·🇮🇳 India

Запущен Dec 24, 2025 с Satish Dhawan Space Centre

Loading…

Ближайшие Пролёты (ближайшие 24 часа)

TLE

СвежийSource: Space-Track

Эпоха: Sep 14, 2026, 17:53 UTC

1 67233U 25309B   26257.74528284  .00003762  00000-0  17322-3 0  9998
2 67233  52.9184 273.8428 0011995  78.8302 281.4040 15.22702361 40281

Отслеживайте LVM3 CUS R/B в реальном времени с AllMySat

Download on the App Store